This demonstration page uses our WeatherBlox Daily Observations layout. Learn more.

Left ArrowRight Arrow

36.19886, -115.1175

Hourly Observations for November 27, 2022

Temp ( °F °C ) Dew Point ( °F °C ) Humidity (%) Winds ( mph kmh ) Pressure ( in mb ) Visibility ( mi km ) Precip ( " mm )
12:53 am 00:53 Clear 51 10.6 25 -3.9 36 36 NNW 14 22 30.17 1022 10 16 0.00 0.00
1:53 am 01:53 Clear 53 11.7 25 -3.9 33 33 NW 21 33 30.17 1022 10 16 0.00 0.00
2:53 am 02:53 Clear 50 10 25 -3.9 37 37 NNW 6 9 30.18 1022 10 16 0.00 0.00
3:53 am 03:53 Clear 48 8.9 25 -3.9 40 40 VRB 3 6 30.19 1022 10 16 0.00 0.00
4:53 am 04:53 Clear 47 8.3 24 -4.4 40 40 Calm 30.19 1022 10 16 0.00 0.00
5:53 am 05:53 Clear 42 5.6 24 -4.4 48 48 W 8 13 30.22 1023 10 16 0.00 0.00
6:53 am 06:53 Sunny 42 5.6 23 -5 46 46 WSW 3 6 30.23 1024 10 16 0.00 0.00
7:53 am 07:53 Sunny 46 7.8 24 -4.4 42 42 Calm 30.24 1024 10 16 0.00 0.00
8:53 am 08:53 Sunny 50 10 24 -4.4 36 36 Calm 30.24 1024 10 16 0.00 0.00
9:53 am 09:53 Sunny 53 11.7 25 -3.9 33 33 Calm 30.23 1024 10 16 0.00 0.00
10:53 am 10:53 Sunny 55 12.8 25 -3.9 31 31 SW 5 7 30.20 1023 10 16 0.00 0.00
11:53 am 11:53 Sunny 58 14.4 24 -4.4 27 27 SE 5 7 30.16 1021 10 16 0.00 0.00
12:53 pm 12:53 Sunny 58 14.4 24 -4.4 27 27 VRB 3 6 30.12 1020 10 16 0.00 0.00
1:53 pm 13:53 Sunny 58 14.4 24 -4.4 27 27 Calm 30.10 1019 10 16 0.00 0.00
2:53 pm 14:53 Sunny 59 15 24 -4.4 26 26 ESE 3 6 30.08 1019 10 16 0.00 0.00
3:53 pm 15:53 Sunny 58 14.4 24 -4.4 27 27 E 6 9 30.06 1018 10 16 0.00 0.00
4:53 pm 16:53 Clear 55 12.8 23 -5 28 28 E 5 7 30.05 1018 10 16 0.00 0.00
5:53 pm 17:53 Clear 55 12.8 24 -4.4 30 30 NE 3 6 30.06 1018 10 16 0.00 0.00
6:53 pm 18:53 Clear 50 10 24 -4.4 36 36 WNW 5 7 30.06 1018 10 16 0.00 0.00
7:53 pm 19:53 Clear 49 9.4 25 -3.9 39 39 NW 6 9 30.05 1018 10 16 0.00 0.00
8:53 pm 20:53 Clear 48 8.9 25 -3.9 40 40 WNW 6 9 30.04 1017 10 16 0.00 0.00
9:53 pm 21:53 Clear 47 8.3 25 -3.9 42 42 NW 5 7 30.04 1017 10 16 0.00 0.00
10:53 pm 22:53 Clear 46 7.8 26 -3.3 45 45 NNW 5 7 30.02 1017 10 16 0.00 0.00
11:53 pm 23:53 Clear 45 7.2 25 -3.9 45 45 W 3 6 30.00 1016 10 16 0.00 0.00

Powered by AerisWeather